Погода в Ишимове

Россия / Пермский край     56°39′45″N   56°48′00″E
темп.,
°C
ветер,
м/с
пор.,
м/с
влажн.,
%
обл.,
%
осадки,
мм/ч
давл.,
гПа
погр.,
м
27 января, чт
чт2723:00−15ююв2295100 0.0 101929
02:00−9ю31195100 0.4 1017549
05:00−9ююз51093100 0.8 1017658
08:00−10юз51192100 0.3 1018615
11:00−10юз51192100 0.5 1020687
14:00−10юз51191100 0.2 1021660
17:00−11юз51191100 0.3 1022613
20:00−12юз41093100 0.1 1023458
28 января, пт
пт2823:00−14ююз41095100 0.2 1024358
02:00−16ююз3798100 0.1 1024145
05:00−18ю269996 0.1 1025110
08:00−19ю2510095 0.0 102579
11:00−16ююз269893 0.1 1025132
14:00−11ююз2391100 0.0 1024261
17:00−13ю119752 0.0 102410
20:00−17вюв119999 0.0 10249
29 января, сб
сб2923:00−15в1197100 0.0 102311
02:00−14в1196100 0.0 102213
05:00−13всв2295100 0.0 102128
08:00−13всв2395100 0.0 102037
11:00−12ююв249181 0.0 101999
14:00−6ююз248776 0.0 1018234
17:00−9ююв119666 0.0 101710
20:00−15ююв229985 0.0 101811
30 января, вс
вс3023:00−14ю249888 0.0 101758
02:00−12ююв3892100 0.0 1016175
05:00−11ю31090100 0.0 1014326
08:00−10ю3994100 0.1 1013352
11:00−9ю41093100 0.1 1012386
14:00−7ю4990100 0.1 1010532
17:00−6ю41093100 0.2 1009454
20:00−6ю41093100 0.1 1009395
31 января, пн
пн3123:00−6ююв3996100 0.1 1008267
02:00−5ю399773 0.1 1008253
05:00−3ю3109694 0.4 1008420
08:00−4ююз499585 0.3 1009389
11:00−5ююз4109498 0.5 1010625
14:00−5ююз51091100 0.1 1011751
17:00−5ю41191100 0.3 1011638
20:00−4ю51395100 0.3 1011681